Find Starlink 35369

NORAD ID: 68706 Int'l Des: 2026-081 Owner: SPXS Country: US Constellation: starlink operational
LEOCIRCULAR

实时位置

正在加载3D地球...

关于 Starlink 35369

正在加载描述...

即将过境

Passes for default location (London). Set your location on the main map for personalized predictions.

高度历史

Loading altitude history...

两行轨道根数

1 68706C 26081G 26105.42895833 .00598230 00000+0 77165-3 0 1054
2 68706 53.1628 237.7627 0007597 302.1782 278.0074 16.06073193 14
Epoch: Apr 15, 2026 • Age: 19 hours

当前状态

高度 264.9 km
速度 7.75 km/s
星下点 52.43°N, 27.92°E
发射日期 Apr 14, 2026
运行时间 1 days
类型 internet

技术详情

分类 Payload
质量 575.00 kg
干质量 530.00 kg
总质量 575.00 kg
长度 0.30 m
直径 4.10 m
跨度 29.00 m
形状 Box + pan
制造商 SPXS
平台类型 Starlink V2MO
阶段状态 In Orbit
所有者/国家 SPXS/US

Most Searched